Hourly Data Report for October 14, 2020

OTTAWA INTL A
ONTARIO
Current Station Operator: NAVCAN

45°19'00.000" N
75°40'00.000" W
114.90 m
6106001
71628
YOW

Download Data

Hourly Data (October 2020)
Hourly Data Report for October 14, 2020
TIME Temp Definition
°C
Dew Point Definition
°C
Rel Hum Definition
%
Wind Dir Definition
10's deg

Wind Spd Definition
km/h
Visibility Definition
km
Stn Press Definition
kPa
Hmdx Definition


Wind Chill Definition


Weather Definition


00:00 7.3 7.2 100 28 3 0.2 99.85     Fog
01:00 7.1 7.0 100 19 5 0.2 99.84     Drizzle,Fog
02:00 5.5 5.5 100 19 7 0.4 99.77     Fog
03:00 6.1 6.0 100 19 7 0.8 99.76     Fog
04:00 5.0 5.0 100 12 6 24.1 99.70     Mostly Cloudy
05:00 5.0 5.0 100 18 7 24.1 99.70     LegendNANA
06:00 3.6 3.5 99 18 8 24.1 99.72     LegendNANA
07:00 4.6 4.6 100 22 8 24.1 99.78     Clear
08:00 7.4 7.3 100 23 9 24.1 99.80     LegendNANA
09:00 10.4 8.1 86 27 17 24.1 99.82     LegendNANA
10:00 11.5 7.3 75 29 22 24.1 99.83     Clear
11:00 12.7 6.5 66 28 22 24.1 99.87     LegendNANA
12:00 13.9 4.8 54 29 23 24.1 99.90     LegendNANA
13:00 15.0 3.6 46 30 30 24.1 99.86     Mainly Clear
14:00 15.6 2.6 41 31 28 24.1 99.92     LegendNANA
15:00 14.4 2.7 45 29 11 24.1 99.88     LegendNANA
16:00 14.8 2.5 43 29 8 24.1 99.87     Mostly Cloudy
17:00 12.3 2.5 51 28 4 24.1 99.87     LegendNANA
18:00 10.0 2.6 60 17 7 24.1 99.89     LegendNANA
19:00 10.2 2.1 57 17 9 24.1 99.91     Mainly Clear
20:00 8.0 1.4 63 16 9 24.1 99.88     LegendNANA
21:00 8.2 3.7 73 17 10 24.1 99.84     LegendNANA
22:00 8.6 6.0 84 15 10 24.1 99.78     Cloudy
23:00 9.0 6.4 84 15 9 24.1 99.82     LegendNANA

Notes on Data Quality.

Legend

  • E = Estimated
  • M = Missing
  • NA = Not Available*
  • [empty] = Indicates an unobserved value
Date modified: